Location: Poughquag
(41.6090°N, 73.6820°W)
Time: 22:16:06
(UTC-05:00)

N. Korean satellite - Pass Details

Date: 01 February 2021
Orbit: 451 x 503 km, 97.2° (Epoch: 24 February)

Event Time Altitude Azimuth Distance (km) Brightness Sun altitude
Rises 04:28:10 0° 30° (NNE) 2,477 10.6 -29.8°
Reaches altitude 10° 04:30:50 10° 53° (NE) 1,592 9.8 -29.3°
Maximum altitude 04:33:00 16° 93° (E) 1,266 9.5 -28.9°
Drops below altitude 10° 04:35:10 10° 133° (SE) 1,579 9.7 -28.5°
Sets 04:37:47 0° 156° (SSE) 2,445 10.4 -28.0°
